Regional Weather Roundup
Issued by NWS

Current Version | Previous Version | Text Only | Print | Product List | Glossary On
Versions: 1 2 3 4 5 6 7 8 9 10 11 12 13 14 15 16 17 18 19 20 21 22 23 24 25 26 27 28 29 30 31 32 33 34 35 36 37 38 39 40 41 42 43 44 45 46 47 48 49 50
000
ASUS44 KJAN 300210
RWRMS

MISSISSIPPI HOURLY WEATHER ROUNDUP
NATIONAL WEATHER SERVICE JACKSON MS
800 PM CST THU JAN 29 2015

NOTE: "FAIR: INDICATES FEW OR NO CLOUDS BELOW 12,000 FEET WITH NO
SIGNIFICANT WEATHER AND/OR OBSTRUCTIONS TO VISIBILITY.

MSZ001>002-007>008-010>013-018>021-025>028-034>036-300300-
NORTHWEST MISSISSIPPI

CITY           SKY/WX    TMP DP  RH WIND       PRES   REMARKS
CLARKSDALE     CLOUDY    46  36  66 N20G30    30.37R
CLEVELAND      FAIR      47  39  73 N20G29    30.35R
GREENWOOD      PTCLDY    51  38  60 N16G29    30.30R
GREENVILLE     PTCLDY    50  40  68 N23G29    30.32R
GRENADA        FAIR      50  36  57 N16G22    30.30R
OLIVE BRANCH   CLOUDY    43  32  65 N18G25    30.36R
OXFORD         CLOUDY    46  36  66 NW17G24   30.33R
TUNICA         MOCLDY    45  34  65 N22       30.37R
$$

MSZ003>006-009-014>017-022>024-029>033-037>039-300300-
NORTHEAST MISSISSIPPI

CITY           SKY/WX    TMP DP  RH WIND       PRES   REMARKS
COLUMBUS AFB   CLOUDY    57  41  55 N21G26    30.21R
CORINTH        CLOUDY    45  34  65 N16G24    30.31R
GOLDN TRIANGLE PTCLDY    57  43  58 N18G25    30.21R
STARKVILLE     FAIR      57  43  58 N12       30.22R
TUPELO         CLOUDY    48  35  60 N21G28    30.28R
$$

MSZ040-058-300300-
CENTRAL MISSISSIPPI

CITY           SKY/WX    TMP DP  RH WIND       PRES   REMARKS
JACKSON INTL   PTCLDY    63  51  65 N9        30.21R
JACKSON HAWKNS PTCLDY    63  47  55 N10G18    30.22R
MERIDIAN KEY   PTCLDY    61  48  62 NW9       30.19R
MERIDIAN NAS   MOCLDY    62  49  62 NW9       30.18R
RAYMOND        MOCLDY    61  57  88 MISG      30.23R
VICKSBURG      PTCLDY    62  43  49 N12G20    30.25R
$$

MSZ059>079-300300-
SOUTH MISSISSIPPI

CITY           SKY/WX    TMP DP  RH WIND       PRES   REMARKS
BROOKHAVEN     FAIR      61  52  72 CALM      30.22R
HATTIESBURG    PTCLDY    65  55  70 W5        30.19R
MCCOMB         PTCLDY    62  49  62 W5        30.21R
NATCHEZ        MOCLDY    63  54  72 NW3       30.24R
PINE BELT      PTCLDY    57  48  72 W3        30.20R
$$

MSZ080>082-300300-
COASTAL MISSISSIPPI

CITY           SKY/WX    TMP DP  RH WIND       PRES   REMARKS
BAY ST LOUIS   CLEAR     57  54  88 CALM      30.20R
BILOXI         CLEAR     58  56  93 SW9       30.20R
PASCAGOULA     PTCLDY    60  55  83 SW5       30.21R
GULFPORT       CLEAR     61  55  81 SW6       30.20R
$$



USA.gov is the U.S. government's official web portal to all federal, state and local government web resources and services.